Location: Newark
(54.2500°N, 9.1833°E)
Time: 19:06:51
(UTC+00:00)

Transit 4A - Pass Details

Date: 23 December 2019
Orbit: 872 x 973 km, 66.8° (Epoch: 28 January)

Event Time Altitude Azimuth Distance (km) Brightness Sun altitude
Rises 16:55:58 0° 277° (W) 3,551 12.1 -15.1°
Reaches altitude 10° 16:58:56 10° 290° (WNW) 2,593 11.0 -15.6°
Maximum altitude 17:03:56 27° 347° (NNW) 1,672 9.2 -16.2°
Enters shadow 17:07:15 17° 32° (NNE) 2,116 9.3 -16.7°
